sat.trackr.live / text

‹ back to catalog

YAOGAN-11

NORAD 37165 · 2010-047A

PAYLOAD ACTIVE UNKNOWN

§ Identity

Operator
Country
PRC
Launch date
2010-09-22
Launch site
JSC
Launch vehicle
Mass (kg)
RCS (m²)
3.33

External: N2YO · Heavens-Above · Gunter

§ Orbital elements

Epoch: 2026-09-20T02:30:38.283264Z

Period
97.15 min
Inclination
98.3696°
Eccentricity
0.0033485
Mean motion
14.82200180 rev/d
Perigee alt
598.9 km
Apogee alt
645.8 km
Semi-major
7,000.5 km
B*
5.9637e-5
RAAN
133.6197°
Arg perigee
298.4079°
Mean anomaly
61.3759°
Rev number
86,215

§ Raw data

YAOGAN-111 37165U 10047A   26263.10460976  .00000419  00000+0  59637-4 0  99932 37165  98.3696 133.6197 0033485 298.4079  61.3759 14.82200180862156

JSON: /api/v1/satellites/37165 · /tle

For live sub-satellite position, see the globe view (requires WebGL).

§ Visibility from observer

Set your observer location to see the next 7 days of passes ≥ 10°. The values pass through the URL so the page stays shareable.

No JS? Fill the form by hand. The geolocation button needs JavaScript.